Flight Track Log - Related Links

Times and Time Zones

All times are in EDT time to prevent confusion due to time zone crossing. See the UAL3776 flight status page for this flight to view local times or setup timezone preferences in your user account.

Time Position Orientation Groundspeed Altitude Reporting Facility
EDT Latitude Longitude Course Direction KTS MPH feet Rate Location/Type
Thu 12:01:35 25.7983 -80.2653 63° Northeast 192 221 800  Level Miami Center
Thu 12:03:07 25.8378 -80.1808 63° Northeast 280 322 3,500 2,245 Climbing Miami Center
Thu 12:04:02 25.9086 -80.1900 353° North 277 319 6,300 2,690 Climbing Miami Center
Thu 12:05:03 25.9725 -80.2308 330° Northwest 290 334 8,700 1,983 Climbing Miami Center
Thu 12:06:03 26.0422 -80.2861 325° Northwest 306 352 10,300 1,600 Climbing Miami Center
Thu 12:07:03 26.1244 -80.3461 327° Northwest 323 372 11,900 1,900 Climbing Miami Center
Thu 12:08:03 26.2044 -80.4089 325° Northwest 344 396 14,100 2,000 Climbing Miami Center
Thu 12:09:03 26.3053 -80.4650 333° Northwest 358 412 15,900 950 Climbing Miami Center
Thu 12:10:03 26.3983 -80.5097 337° Northwest 386 444 16,000 550 Climbing Miami Center
Thu 12:11:03 26.5158 -80.5644 337° Northwest 419 482 17,000 1,550 Climbing Miami Center
Thu 12:12:03 26.6128 -80.6117 336° Northwest 413 475 19,100 2,000 Climbing Miami Center
Thu 12:13:03 26.7222 -80.6617 338° Northwest 403 464 21,000 1,700 Climbing Miami Center
Thu 12:14:03 26.8253 -80.7092 338° Northwest 398 458 22,500 1,450 Climbing Miami Center
Thu 12:15:03 26.9328 -80.7500 341° North 398 458 23,900 1,300 Climbing Miami Center
Thu 12:16:03 27.0425 -80.7886 343° North 404 465 25,100 1,400 Climbing Miami Center
Thu 12:17:03 27.1542 -80.8275 343° North 409 471 26,700 1,400 Climbing Miami Center
Thu 12:18:03 27.2636 -80.8708 341° North 409 471 27,900 1,400 Climbing Miami Center
Thu 12:19:03 27.3775 -80.9075 344° North 414 476 29,500 1,650 Climbing Miami Center
Thu 12:20:03 27.4806 -80.9486 341° North 414 476 31,200 1,650 Climbing Miami Center
Thu 12:21:03 27.5839 -80.9850 343° North 398 458 32,800 1,250 Climbing Miami Center
Thu 12:22:03 27.6831 -81.0214 342° North 385 443 33,700 818 Climbing Miami Center
Thu 12:23:15 27.7844 -81.0556 343° North 380 437 34,600 591 Climbing Miami Center
Thu 12:24:15 27.9061 -81.1025 341° North 380 437 35,000 200 Climbing Miami Center
Thu 12:25:15 28.0156 -81.1419 342° North 394 453 35,000  Level Miami Center
Thu 12:26:15 28.1167 -81.1786 342° North 404 465 35,000  Level Miami Center
Thu 12:27:15 28.2303 -81.2206 342° North 420 483 35,000  Level Miami Center
Thu 12:28:15 28.3583 -81.2658 343° North 431 496 35,000  Level Miami Center
Thu 12:29:15 28.4758 -81.3081 342° North 438 504 35,000  Level Miami Center
Thu 12:30:15 28.5914 -81.3506 342° North 438 504 35,000  Level Miami Center
Thu 12:31:15 28.6922 -81.3878 342° North 438 504 35,000  Level Miami Center
Thu 12:31:32 28.7381 -81.4008 346° North 435 501 35,000  Level Jacksonville Center
Thu 12:32:32 28.8556 -81.4442 342° North 435 501 35,000  Level Jacksonville Center
Thu 12:33:32 28.9728 -81.4875 342° North 435 501 35,000  Level Jacksonville Center
Thu 12:34:32 29.0903 -81.5261 344° North 435 501 35,000  Level Jacksonville Center
Thu 12:35:32 29.2075 -81.5650 344° North 441 507 35,000  Level Jacksonville Center
Thu 12:36:32 29.3206 -81.6089 341° North 441 507 35,000  Level Jacksonville Center
Thu 12:37:32 29.4400 -81.6503 343° North 441 507 35,000  Level Jacksonville Center
Thu 12:38:32 29.5633 -81.6606 356° North 441 507 35,000  Level Jacksonville Center
Thu 12:39:32 29.6864 -81.6447 North 436 502 35,000  Level Jacksonville Center
Thu 12:40:32 29.8114 -81.6286 North 441 507 35,000  Level Jacksonville Center
Thu 12:41:32 29.9364 -81.6103 North 441 507 35,000  Level Jacksonville Center
Thu 12:42:32 30.0617 -81.5942 North 446 513 35,000  Level Jacksonville Center
Thu 12:43:32 30.1889 -81.5781 North 446 513 35,000  Level Jacksonville Center
Thu 12:44:32 30.3117 -81.5619 North 446 513 35,000  Level Jacksonville Center
Thu 12:45:32 30.4389 -81.5433 North 446 513 35,000  Level Jacksonville Center
Thu 12:46:32 30.5642 -81.5269 North 446 513 35,000  Level Jacksonville Center
Thu 12:47:32 30.6869 -81.5133 North 446 513 35,000  Level Jacksonville Center
Thu 12:48:32 30.8122 -81.4944 North 446 513 35,000  Level Jacksonville Center
Thu 12:49:32 30.9394 -81.4781 North 446 513 35,000  Level Jacksonville Center
Thu 12:50:32 31.0644 -81.4617 North 446 513 35,000  Level Jacksonville Center
Thu 12:51:32 31.1936 -81.4450 North 451 519 35,000  Level Jacksonville Center
Thu 12:52:32 31.3186 -81.4214 North 450 518 35,000  Level Jacksonville Center
Thu 12:53:32 31.4350 -81.3658 22° Northeast 448 516 35,000  Level Jacksonville Center
Thu 12:54:32 31.5406 -81.3033 27° Northeast 460 529 35,000  Level Jacksonville Center
Thu 12:55:32 31.6711 -81.2278 26° Northeast 465 535 35,000  Level Jacksonville Center
Thu 12:56:32 31.7769 -81.1622 28° Northeast 465 535 35,000  Level Jacksonville Center
Thu 12:57:32 31.9072 -81.0839 27° Northeast 470 541 35,000  Level Jacksonville Center
Thu 12:58:32 32.0253 -81.0156 26° Northeast 470 541 35,000  Level Jacksonville Center
Thu 12:59:32 32.1328 -80.9494 28° Northeast 470 541 35,000  Level Jacksonville Center
Thu 13:00:32 32.2653 -80.8731 26° Northeast 465 535 35,000  Level Jacksonville Center
Thu 13:01:32 32.3686 -80.8117 27° Northeast 459 528 35,000  Level Jacksonville Center
Thu 13:02:32 32.4989 -80.7325 27° Northeast 465 535 35,000  Level Jacksonville Center
Thu 13:03:32 32.6144 -80.6606 28° Northeast 465 535 35,000  Level Jacksonville Center
Thu 13:04:32 32.7300 -80.5911 27° Northeast 459 528 35,000 -50 Level Jacksonville Center
Thu 13:05:32 32.8478 -80.5189 27° Northeast 459 528 34,900  Descending Jacksonville Center
Thu 13:06:32 32.9656 -80.4489 26° Northeast 464 534 35,000 50 Climbing Jacksonville Center
Thu 13:07:32 33.0683 -80.3817 29° Northeast 469 540 35,000  Level Jacksonville Center
Thu 13:08:32 33.1947 -80.3333 18° North 464 534 35,000  Level Jacksonville Center
Thu 13:09:32 33.3281 -80.3147 North 464 534 35,000  Level Jacksonville Center
Thu 13:10:32 33.4550 -80.2936 North 464 534 35,000  Level Jacksonville Center
Thu 13:11:32 33.5808 -80.2275 24° Northeast 469 540 35,000  Level Jacksonville Center
Thu 13:12:32 33.7022 -80.1514 28° Northeast 475 547 35,000  Level Jacksonville Center
Thu 13:13:32 33.8217 -80.0753 28° Northeast 480 552 35,000  Level Jacksonville Center
Thu 13:14:32 33.9453 -80.0011 26° Northeast 485 558 35,000  Level Jacksonville Center
Thu 13:15:32 34.0686 -79.9269 26° Northeast 485 558 35,000  Level Jacksonville Center
Thu 13:17:35 34.3178 -79.7758 27° Northeast 467 537 35,000  Level Washington Center
Thu 13:18:35 34.4475 -79.6994 26° Northeast 488 562 35,000  Level Washington Center
Thu 13:19:35 34.5775 -79.6203 27° Northeast 513 590 35,000  Level Washington Center
Thu 13:20:35 34.7181 -79.5414 25° Northeast 513 590 35,000  Level Washington Center
Thu 13:21:35 34.8328 -79.4733 26° Northeast 513 590 35,000  Level Washington Center
Thu 13:22:35 34.9731 -79.3939 25° Northeast 503 579 35,000  Level Washington Center
Thu 13:23:35 35.1006 -79.3189 26° Northeast 503 579 35,000  Level Washington Center
Thu 13:24:35 35.2283 -79.2408 27° Northeast 503 579 35,000  Level Washington Center
Thu 13:25:35 35.3450 -79.1722 26° Northeast 503 579 35,000  Level Washington Center
Thu 13:26:35 35.4875 -79.0867 26° Northeast 503 579 35,000  Level Washington Center
Thu 13:27:35 35.5958 -79.0150 28° Northeast 498 573 35,000  Level Washington Center
Thu 13:28:35 35.7253 -78.9411 25° Northeast 498 573 35,000  Level Washington Center
Thu 13:29:35 35.8633 -78.8547 27° Northeast 498 573 35,000 -900 Level Washington Center
Thu 13:30:35 35.9906 -78.7778 26° Northeast 498 573 33,200 -2,100 Descending Washington Center
Thu 13:31:35 36.1156 -78.7031 26° Northeast 493 567 30,800 -2,450 Descending Washington Center
Thu 13:32:35 36.2444 -78.6439 20° North 495 570 28,300 -1,900 Descending Washington Center
Thu 13:33:35 36.3742 -78.6258 North 476 548 27,000 -650 Descending Washington Center
Thu 13:34:35 36.4972 -78.5531 25° Northeast 470 541 27,000  Level Washington Center
Thu 13:35:35 36.6158 -78.4722 29° Northeast 479 551 27,000  Level Washington Center
Thu 13:36:36 36.7242 -78.3983 29° Northeast 488 562 27,000  Level Washington Center
Thu 13:37:35 36.8450 -78.3119 30° Northeast 493 567 27,000 -454 Level Washington Center
Thu 13:38:35 36.9722 -78.2203 30° Northeast 493 567 26,100 -1,000 Descending Washington Center
Thu 13:39:35 37.0803 -78.1458 29° Northeast 493 567 25,000 -1,100 Descending Washington Center
Thu 13:40:35 37.2008 -78.0639 28° Northeast 493 567 23,900 -1,100 Descending Washington Center
Thu 13:41:35 37.3153 -77.9786 31° Northeast 488 562 22,800 -950 Descending Washington Center
Thu 13:42:35 37.4314 -77.8986 29° Northeast 488 562 22,000 -550 Descending Washington Center
Thu 13:43:35 37.5456 -77.8183 29° Northeast 483 556 21,700 -1,050 Descending Washington Center
Thu 13:44:35 37.6639 -77.7483 25° Northeast 466 536 19,900 -1,900 Descending Washington Center
Thu 13:45:35 37.7775 -77.6831 24° Northeast 454 522 17,900 -1,950 Descending Washington Center
Thu 13:46:35 37.8869 -77.6203 24° Northeast 442 509 16,000 -2,200 Descending Washington Center
Thu 13:47:35 37.9903 -77.5572 26° Northeast 427 491 13,500 -2,550 Descending Washington Center
Thu 13:48:35 38.0892 -77.5019 24° Northeast 403 464 10,900 -1,750 Descending Washington Center
Thu 13:49:35 38.1839 -77.4461 25° Northeast 381 438 10,000 -450 Descending Washington Center
Thu 13:50:35 38.2639 -77.4006 24° Northeast 343 395 10,000 -400 Level Washington Center
Thu 13:51:35 38.3439 -77.3575 23° Northeast 319 367 9,200 -1,190 Descending Washington Center
Thu 13:52:36 38.4272 -77.3594 359° North 309 356 7,600 -1,400 Descending Washington Center
Thu 13:53:35 38.5106 -77.3614 359° North 297 342 6,400 -1,050 Descending Washington Center
Thu 13:54:36 38.5958 -77.3661 358° North 297 342 5,500 -1,200 Descending Washington Center
Thu 13:55:35 38.6794 -77.3628 North 297 342 4,000 -756 Descending Washington Center
Thu 13:56:35 38.7608 -77.3594 North 292 336 4,000  Level Washington Center
Thu 13:57:08 38.8167 -77.3500 North 296 341 4,000  Level Potomac TRACON
Thu 13:58:08 38.9000 -77.3500 360° North 295 339 4,000 -150 Level Potomac TRACON
Thu 13:59:08 38.9667 -77.3500 360° North 235 270 3,700 -199 Descending Potomac TRACON
Thu 14:01:00 38.9474 -77.4599 North  Level Estimated
Thu 14:03:09 39.2000 -77.3500 195° South 211 243 3,000  Level Potomac TRACON
Thu 14:05:00 39.0925 -77.3871 201° Southwest  Level FlightAware Approximate
Thu 14:06:10 39.1000 -77.4333 201° Southwest 171 197 2,000  Level Potomac TRACON
Thu 14:08:00 38.9474 -77.4599 195° South  Level Estimated
Thu 14:08:10 39.0000 -77.4333 180° South 139 160 1,400  Level Potomac TRACON
Thu 14:09:10 38.9667 -77.4333 180° South 131 151 700 -700 Descending Potomac TRACON
Thu 14:11:00 38.9474 -77.4599 195° South  Level Estimated
Thu 14:18:00 38.9474 -77.4599 195° South  Level Estimated
Thu 14:19:00 38.9474 -77.4599 195° South  Level Estimated
Thu 14:20:00 38.9474 -77.4599 195° South  Level Estimated
Thu 14:21:00 38.9474 -77.4599 195° South  Level Estimated

Login

Don't have an account? Register now (free) for customized features, flight alerts, and more!